Location: Breckenridge
(39.4820°N, 106.0380°W)
Time: 11:07:57
(UTC-06:00)

ISS - Pass Details

Date: 25 March 2019
Orbit: 408 x 410 km, 51.6° (Epoch: 20 April)

Event Time Altitude Azimuth Distance (km) Brightness Sun altitude
Rises 20:56:45 0° 280° (W) 2,326 1.6 -18.9°
Reaches altitude 10° 20:59:30 10° 304° (NW) 1,466 0.1 -19.4°
Maximum altitude 21:01:30 15° 342° (NNW) 1,200 -1.0 -19.7°
Drops below altitude 10° 21:03:30 10° 20° (NNE) 1,468 -1.0 -20.1°
Enters shadow 21:03:36 10° 21° (NNE) 1,492 -1.0 -20.1°
